Location: Castillon
(43.0896°N, 0.2156°E)
Time: 15:49:10
(UTC+00:00)

DNEPR-1 R/B - Pass Details

Date: 16 June 2021
Orbit: 588 x 1333 km, 64.6° (Epoch: 03 August)

Event Time Altitude Azimuth Distance (km) Brightness Sun altitude
Rises 22:43:42 0° 323° (NW) 2,827 8.2 -21.2°
Reaches altitude 10° 22:45:55 10° 321° (NW) 1,922 7.1 -21.4°
Maximum altitude 22:50:07 68° 239° (WSW) 659 3.5 -21.6°
Enters shadow 22:50:37 61° 196° (SSW) 697 3.5 -21.6°
